Location: Cahas Mountain Overlook
(37.0833°N, 80.1000°W)
Time: 10:08:12
(UTC-05:00)

S-56A Canister/Altair - Pass Details

Date: 03 December 2023
Orbit: 640 x 2488 km, 38.9° (Epoch: 25 February)

Event Time Altitude Azimuth Distance (km) Brightness Sun altitude
Rises 15:31:14 0° 281° (W) 2,957 11.1 14.2°
Reaches altitude 10° 15:33:22 10° 282° (WNW) 2,103 10.4 13.9°
Maximum altitude 15:38:04 81° 9° (N) 792 7.8 13.2°
Drops below altitude 10° 15:44:24 10° 98° (E) 2,788 10.1 12.2°
Sets 15:47:36 0° 100° (E) 4,015 10.8 11.7°
